Tracking 28790 objects as of 19-Apr-2024
HD Live streaming from Space Station
objects crossing your sky now

JILIN-01 GAOFEN 3D 33

Track JILIN-01 GAOFEN 3D 33 now!
10-day predictions


NORAD ID: 52450
Int'l Code: 2022-048H
Perigee: 491.7 km
Apogee: 507.7 km
Inclination: 97.6 °
Period: 94.5 minutes
Semi major axis: 6870 km
RCS: Unknown
Launch date: May 5, 2022
Source: People's Republic of China (PRC)
Launch site: Taiyaun Space Center, China (TSC)
Your satellite tracking list
Your tracking list is empty




NASA's NSSDC Master Catalog

Two Line Element Set (TLE):
1 52450U 22048H   24109.84218788  .00028869  00000-0  11749-2 0  9991
2 52450  97.6007 188.7720 0011626 334.9848  25.0824 15.24407679108268
Source of the keplerian elements: AFSPC